Location: Unspecified
(0.0000°N, 0.0000°E)
Time: 03:22:31
(UTC+00:00)

ISS - Pass Details

Date: 16 November 2019
Orbit: 412 x 421 km, 51.6° (Epoch: 12 November)

Event Time Altitude Azimuth Distance (km) Brightness Sun altitude
Rises 18:51:56 0° 251° (WSW) 2,342 1.9 -15.9°
Reaches altitude 10° 18:55:17 10° 287° (WNW) 1,479 -0.2 -16.7°
Maximum altitude 18:56:22 11° 306° (NW) 1,406 -0.7 -16.9°
Drops below altitude 10° 18:57:27 10° 325° (NW) 1,478 -0.8 -17.2°
Enters shadow 18:59:29 - 352° (N) 1,925 -0.5 -17.6°
